,,,PA_Meas_PMT16A,,PR_Meas_QMR101_102,,RH_Meas_QMH101,,SR_Meas_QMS101,,TA_Meas_QMH101,,GenWind,,GenWind,
date,time,status,PA,status,PR,status,RH,status,SR,status,TA,status,DirAvg,status,SpdAvg,
2008-04-22, 00:00:04,VALID,1001.95,VALID,0,VALID,97.1309,VALID,0,VALID,23.6469,VALID,10,VALID,0.303516,
2008-04-22, 00:01:04,VALID,1001.95,VALID,0,VALID,97.108,VALID,0,VALID,23.7071,VALID,10,VALID,0.00195313,
2008-04-22, 00:02:04,VALID,1001.96,VALID,0,VALID,97.0622,VALID,0,VALID,23.608,VALID,10,VALID,0,
2008-04-22, 00:03:04,VALID,1001.92,VALID,0,VALID,97.0546,VALID,0,VALID,23.5496,VALID,10,VALID,0,
2008-04-22, 00:04:04,VALID,1001.94,VALID,0,VALID,97.0394,VALID,0,VALID,23.4718,VALID,10,VALID,0,
2008-04-22, 00:05:04,VALID,1001.94,VALID,0,VALID,97.0241,VALID,0,VALID,23.4541,VALID,10,VALID,0,
2008-04-22, 00:06:04,VALID,1001.92,VALID,0,VALID,97.0165,VALID,0,VALID,23.3939,VALID,10,VALID,0,
2008-04-22, 00:07:04,VALID,1001.95,VALID,0,VALID,97.0317,VALID,0,VALID,23.4134,VALID,10,VALID,0,
2008-04-22, 00:08:04,VALID,1001.95,VALID,0,VALID,97.0241,VALID,0,VALID,23.4151,VALID,10,VALID,0,
2008-04-22, 00:09:04,VALID,1001.93,VALID,0,VALID,97.047,VALID,0,VALID,23.4718,VALID,10,VALID,0,
2008-04-22, 00:10:04,VALID,1001.92,VALID,0,VALID,97.0928,VALID,0,VALID,23.5514,VALID,10,VALID,0,
2008-04-22, 00:11:04,VALID,1001.97,VALID,0,VALID,97.0928,VALID,0,VALID,23.5709,VALID,10,VALID,0,
2008-04-22, 00:12:04,VALID,1001.94,VALID,0,VALID,97.1004,VALID,0,VALID,23.5496,VALID,10,VALID,0,
2008-04-22, 00:13:04,VALID,1001.98,VALID,0,VALID,97.0699,VALID,0,VALID,23.5709,VALID,10,VALID,0,
2008-04-22, 00:14:04,VALID,1001.94,VALID,0,VALID,97.0546,VALID,0,VALID,23.4735,VALID,10,VALID,0,
2008-04-22, 00:15:04,VALID,1001.94,VALID,0,VALID,97.0241,VALID,0,VALID,23.3744,VALID,10,VALID,0,
2008-04-22, 00:16:04,VALID,1001.96,VALID,0,VALID,97.0394,VALID,0,VALID,23.3957,VALID,10,VALID,0,
2008-04-22, 00:17:04,VALID,1001.93,VALID,0,VALID,97.0928,VALID,0,VALID,23.4735,VALID,10,VALID,0,
2008-04-22, 00:18:04,VALID,1001.89,VALID,0,VALID,97.0851,VALID,0,VALID,23.493,VALID,10,VALID,0,
2008-04-22, 00:19:04,VALID,1001.9,VALID,0,VALID,97.0928,VALID,0,VALID,23.5125,VALID,10,VALID,0,
2008-04-22, 00:20:04,VALID,1001.9,VALID,0,VALID,97.0928,VALID,0,VALID,23.4718,VALID,10,VALID,0,
2008-04-22, 00:21:04,VALID,1001.9,VALID,0,VALID,97.0394,VALID,0,VALID,23.4328,VALID,10,VALID,0,
2008-04-22, 00:22:04,VALID,1001.89,VALID,0,VALID,97.0317,VALID,0,VALID,23.3939,VALID,10,VALID,0,
2008-04-22, 00:23:04,VALID,1001.89,VALID,0,VALID,97.0317,VALID,0,VALID,23.3744,VALID,10,VALID,0,
2008-04-22, 00:24:04,VALID,1001.9,VALID,0,VALID,97.047,VALID,0,VALID,23.3744,VALID,10,VALID,0,
2008-04-22, 00:25:04,VALID,1001.89,VALID,0,VALID,97.0317,VALID,0,VALID,23.3355,VALID,10,VALID,0,
2008-04-22, 00:26:04,VALID,1001.9,VALID,0,VALID,97.0699,VALID,0,VALID,23.3762,VALID,10,VALID,0,
2008-04-22, 00:27:04,VALID,1001.9,VALID,0,VALID,97.0699,VALID,0,VALID,23.3762,VALID,10,VALID,0,
2008-04-22, 00:28:04,VALID,1001.86,VALID,0,VALID,97.1309,VALID,0,VALID,23.4541,VALID,10,VALID,0,
2008-04-22, 00:29:04,VALID,1001.86,VALID,0,VALID,97.1462,VALID,0,VALID,23.5319,VALID,10,VALID,0,
2008-04-22, 00:30:04,VALID,1001.84,VALID,0,VALID,97.1538,VALID,0,VALID,23.5903,VALID,10,VALID,0,
2008-04-22, 00:31:04,VALID,1001.82,VALID,0,VALID,97.108,VALID,0,VALID,23.5514,VALID,10,VALID,0,
2008-04-22, 00:32:04,VALID,1001.83,VALID,0,VALID,97.0851,VALID,0,VALID,23.493,VALID,10,VALID,0,
2008-04-22, 00:33:04,VALID,1001.83,VALID,0,VALID,97.1233,VALID,0,VALID,23.493,VALID,10,VALID,0,
2008-04-22, 00:34:04,VALID,1001.83,VALID,0,VALID,97.1462,VALID,0,VALID,23.5709,VALID,10,VALID,0,
2008-04-22, 00:35:04,VALID,1001.84,VALID,0,VALID,97.1233,VALID,0,VALID,23.5709,VALID,10,VALID,0,
2008-04-22, 00:36:04,VALID,1001.83,VALID,0,VALID,97.0775,VALID,0,VALID,23.4735,VALID,10,VALID,0,
2008-04-22, 00:37:04,VALID,1001.84,VALID,0,VALID,97.0546,VALID,0,VALID,23.4134,VALID,10,VALID,0,
2008-04-22, 00:38:04,VALID,1001.84,VALID,0,VALID,97.0546,VALID,0,VALID,23.4151,VALID,10,VALID,0,
2008-04-22, 00:39:04,VALID,1001.84,VALID,0,VALID,97.0775,VALID,0,VALID,23.3939,VALID,10,VALID,0,
2008-04-22, 00:40:04,VALID,1001.81,VALID,0,VALID,97.0317,VALID,0,VALID,23.3744,VALID,10,VALID,0,
2008-04-22, 00:41:04,VALID,1001.83,VALID,0,VALID,97.047,VALID,0,VALID,23.316,VALID,10,VALID,0,
2008-04-22, 00:42:04,VALID,1001.83,VALID,0,VALID,97.0546,VALID,0,VALID,23.3178,VALID,10,VALID,0,
2008-04-22, 00:43:04,VALID,1001.81,VALID,0,VALID,97.0851,VALID,0,VALID,23.3355,VALID,10,VALID,0,
2008-04-22, 00:44:04,VALID,1001.81,VALID,0,VALID,97.108,VALID,0,VALID,23.3355,VALID,10,VALID,0,
2008-04-22, 00:45:04,VALID,1001.79,VALID,0,VALID,97.1462,VALID,0,VALID,23.3744,VALID,10,VALID,0,
2008-04-22, 00:46:04,VALID,1001.81,VALID,0,VALID,97.1614,VALID,0,VALID,23.4523,VALID,10,VALID,0,
2008-04-22, 00:47:04,VALID,1001.79,VALID,0,VALID,97.1538,VALID,0,VALID,23.4718,VALID,10,VALID,0,
2008-04-22, 00:48:04,VALID,1001.82,VALID,0,VALID,97.1385,VALID,0,VALID,23.493,VALID,10,VALID,0,
2008-04-22, 00:49:04,VALID,1001.79,VALID,0,VALID,97.1462,VALID,0,VALID,23.4894,VALID,10,VALID,0,
2008-04-22, 00:50:04,VALID,1001.78,VALID,0,VALID,97.108,VALID,0,VALID,23.4718,VALID,10,VALID,0,
2008-04-22, 00:51:04,VALID,1001.79,VALID,0,VALID,97.0928,VALID,0,VALID,23.4328,VALID,10,VALID,0,
2008-04-22, 00:52:04,VALID,1001.79,VALID,0,VALID,97.1156,VALID,0,VALID,23.4328,VALID,10,VALID,0,
2008-04-22, 00:53:04,VALID,1001.76,VALID,0,VALID,97.1233,VALID,0,VALID,23.4328,VALID,10,VALID,0,
2008-04-22, 00:54:04,VALID,1001.75,VALID,0,VALID,97.0928,VALID,0,VALID,23.4328,VALID,10,VALID,0,
2008-04-22, 00:55:04,VALID,1001.73,VALID,0,VALID,97.0775,VALID,0,VALID,23.3939,VALID,10,VALID,0,
2008-04-22, 00:56:04,VALID,1001.72,VALID,0,VALID,97.0775,VALID,0,VALID,23.355,VALID,10,VALID,0,
2008-04-22, 00:57:04,VALID,1001.69,VALID,0,VALID,97.0775,VALID,0,VALID,23.3355,VALID,10,VALID,0,
2008-04-22, 00:58:04,VALID,1001.69,VALID,0,VALID,97.0775,VALID,0,VALID,23.316,VALID,10,VALID,0,
2008-04-22, 00:59:04,VALID,1001.67,VALID,0,VALID,97.0851,VALID,0,VALID,23.316,VALID,10,VALID,0,
2008-04-22, 01:00:04,VALID,1001.63,VALID,0,VALID,97.1004,VALID,0,VALID,23.3355,VALID,10,VALID,0,
2008-04-22, 01:01:04,VALID,1001.62,VALID,0,VALID,97.1004,VALID,0,VALID,23.355,VALID,10,VALID,0,
2008-04-22, 01:02:04,VALID,1001.62,VALID,0,VALID,97.1156,VALID,0,VALID,23.3337,VALID,10,VALID,0,
2008-04-22, 01:03:04,VALID,1001.6,VALID,0,VALID,97.1462,VALID,0,VALID,23.4134,VALID,10,VALID,0,
2008-04-22, 01:04:05,VALID,1001.58,VALID,0,VALID,97.2148,VALID,0,VALID,23.4912,VALID,9,VALID,0.251172,
2008-04-22, 01:05:05,VALID,1001.55,VALID,0,VALID,97.1843,VALID,0,VALID,23.5868,VALID,9,VALID,0.433594,
2008-04-22, 01:06:05,VALID,1001.56,VALID,0,VALID,97.1614,VALID,0,VALID,23.608,VALID,9,VALID,0.247266,
2008-04-22, 01:07:05,VALID,1001.55,VALID,0,VALID,97.1156,VALID,0,VALID,23.5496,VALID,9,VALID,0.350391,
2008-04-22, 01:08:05,VALID,1001.54,VALID,0,VALID,97.108,VALID,0,VALID,23.4912,VALID,9,VALID,0.261328,
2008-04-22, 01:09:05,VALID,1001.5,VALID,0,VALID,97.1004,VALID,0,VALID,23.4328,VALID,9,VALID,0.40625,
2008-04-22, 01:10:05,VALID,1001.48,VALID,0,VALID,97.0622,VALID,0,VALID,23.3355,VALID,9,VALID,0.568359,
2008-04-22, 01:11:05,VALID,1001.5,VALID,0,VALID,97.0546,VALID,0,VALID,23.2771,VALID,9,VALID,0.489844,
2008-04-22, 01:12:05,VALID,1001.49,VALID,0,VALID,97.0699,VALID,0,VALID,23.2382,VALID,9,VALID,0.582812,
2008-04-22, 01:13:05,VALID,1001.49,VALID,0,VALID,97.0622,VALID,0,VALID,23.2187,VALID,9,VALID,0.494141,
2008-04-22, 01:14:05,VALID,1001.44,VALID,0,VALID,97.0622,VALID,0,VALID,23.1993,VALID,9,VALID,0.584766,
2008-04-22, 01:15:05,VALID,1001.46,VALID,0,VALID,97.0775,VALID,0,VALID,23.1798,VALID,9,VALID,0.576953,
2008-04-22, 01:16:05,VALID,1001.46,VALID,0,VALID,97.0851,VALID,0,VALID,23.1993,VALID,8,VALID,0.559766,
2008-04-22, 01:17:05,VALID,1001.45,VALID,0,VALID,97.1004,VALID,0,VALID,23.2187,VALID,8,VALID,0.494141,
2008-04-22, 01:18:05,VALID,1001.45,VALID,0,VALID,97.1233,VALID,0,VALID,23.217,VALID,8,VALID,0.505078,
2008-04-22, 01:19:05,VALID,1001.46,VALID,0,VALID,97.1462,VALID,0,VALID,23.2771,VALID,8,VALID,0.441406,
2008-04-22, 01:20:05,VALID,1001.47,VALID,0,VALID,97.1614,VALID,0,VALID,23.3355,VALID,8,VALID,0.394141,
2008-04-22, 01:21:05,VALID,1001.49,VALID,0,VALID,97.1538,VALID,0,VALID,23.3355,VALID,8,VALID,0.396875,
2008-04-22, 01:22:05,VALID,1001.48,VALID,0,VALID,97.1614,VALID,0,VALID,23.316,VALID,8,VALID,0.388281,
2008-04-22, 01:23:05,VALID,1001.47,VALID,0,VALID,97.1385,VALID,0,VALID,23.316,VALID,8,VALID,0.364844,
2008-04-22, 01:24:05,VALID,1001.49,VALID,0,VALID,97.1309,VALID,0,VALID,23.3178,VALID,8,VALID,0.392969,
2008-04-22, 01:25:05,VALID,1001.45,VALID,0,VALID,97.1309,VALID,0,VALID,23.2771,VALID,8,VALID,0.399609,
2008-04-22, 01:26:05,VALID,1001.47,VALID,0,VALID,97.1233,VALID,0,VALID,23.2771,VALID,8,VALID,0.382031,
2008-04-22, 01:27:05,VALID,1001.45,VALID,0,VALID,97.1309,VALID,0,VALID,23.2983,VALID,8,VALID,0.5,
2008-04-22, 01:28:05,VALID,1001.47,VALID,0,VALID,97.1462,VALID,0,VALID,23.2771,VALID,8,VALID,0.470703,
2008-04-22, 01:29:05,VALID,1001.48,VALID,0,VALID,97.1309,VALID,0,VALID,23.2789,VALID,8,VALID,0.467187,
2008-04-22, 01:30:05,VALID,1001.48,VALID,0,VALID,97.1462,VALID,0,VALID,23.2983,VALID,8,VALID,0.366016,
2008-04-22, 01:31:05,VALID,1001.5,VALID,0,VALID,97.1614,VALID,0,VALID,23.2966,VALID,8,VALID,0.320703,
2008-04-22, 01:32:05,VALID,1001.49,VALID,0,VALID,97.1691,VALID,0,VALID,23.316,VALID,8,VALID,0.335938,
2008-04-22, 01:33:05,VALID,1001.48,VALID,0,VALID,97.1691,VALID,0,VALID,23.3762,VALID,8,VALID,0.376172,
2008-04-22, 01:34:05,VALID,1001.47,VALID,0,VALID,97.1691,VALID,0,VALID,23.316,VALID,8,VALID,0.413672,
2008-04-22, 01:35:05,VALID,1001.48,VALID,0,VALID,97.1538,VALID,0,VALID,23.316,VALID,8,VALID,0.45625,
2008-04-22, 01:36:05,VALID,1001.45,VALID,0,VALID,97.1385,VALID,0,VALID,23.3373,VALID,8,VALID,0.529688,
2008-04-22, 01:37:05,VALID,1001.46,VALID,0,VALID,97.1538,VALID,0,VALID,23.3355,VALID,8,VALID,0.633203,
2008-04-22, 01:38:05,VALID,1001.48,VALID,0,VALID,97.1462,VALID,0,VALID,23.3373,VALID,9,VALID,0.590234,
2008-04-22, 01:39:05,VALID,1001.46,VALID,0,VALID,97.1691,VALID,0,VALID,23.2966,VALID,7,VALID,0.519922,
2008-04-22, 01:40:05,VALID,1001.46,VALID,0,VALID,97.1919,VALID,0,VALID,23.3355,VALID,5,VALID,0.422656,
2008-04-22, 01:41:05,VALID,1001.44,VALID,0,VALID,97.2072,VALID,0,VALID,23.3939,VALID,5,VALID,0.414844,
2008-04-22, 01:42:05,VALID,1001.42,VALID,0,VALID,97.1767,VALID,0,VALID,23.4346,VALID,5,VALID,0.487891,
2008-04-22, 01:43:05,VALID,1001.42,VALID,0,VALID,97.1767,VALID,0,VALID,23.4328,VALID,360,VALID,0.550391,
2008-04-22, 01:44:05,VALID,1001.43,VALID,0,VALID,97.2072,VALID,0,VALID,23.4912,VALID,357,VALID,0.816797,
2008-04-22, 01:45:05,VALID,1001.42,VALID,0,VALID,97.1843,VALID,0,VALID,23.5496,VALID,358,VALID,0.739062,
2008-04-22, 01:46:05,VALID,1001.4,VALID,0,VALID,97.1919,VALID,0,VALID,23.6098,VALID,356,VALID,0.7875,
2008-04-22, 01:47:05,VALID,1001.42,VALID,0,VALID,97.1843,VALID,0,VALID,23.6098,VALID,358,VALID,0.585547,
2008-04-22, 01:48:05,VALID,1001.4,VALID,0,VALID,97.1691,VALID,0,VALID,23.5691,VALID,4,VALID,0.830078,
2008-04-22, 01:49:05,VALID,1001.42,VALID,0,VALID,97.1691,VALID,0,VALID,23.5903,VALID,1,VALID,0.692578,
2008-04-22, 01:50:05,VALID,1001.42,VALID,0,VALID,97.1691,VALID,0,VALID,23.6098,VALID,1,VALID,0.586328,
2008-04-22, 01:51:05,VALID,1001.39,VALID,0,VALID,97.1843,VALID,0,VALID,23.6275,VALID,356,VALID,0.535547,
2008-04-22, 01:52:05,VALID,1001.39,VALID,0,VALID,97.1538,VALID,0,VALID,23.6275,VALID,359,VALID,0.603516,
2008-04-22, 01:53:05,VALID,1001.42,VALID,0,VALID,97.1538,VALID,0,VALID,23.6682,VALID,358,VALID,0.520703,
2008-04-22, 01:54:05,VALID,1001.42,VALID,0,VALID,97.1767,VALID,0,VALID,23.6257,VALID,355,VALID,0.567187,
2008-04-22, 01:55:05,VALID,1001.4,VALID,0,VALID,97.1614,VALID,0.100563,VALID,23.6434,VALID,346,VALID,0.691016,
2008-04-22, 01:56:05,VALID,1001.42,VALID,0,VALID,97.1614,VALID,0.100563,VALID,23.7053,VALID,353,VALID,0.521875,
2008-04-22, 01:57:05,VALID,1001.39,VALID,0,VALID,97.1385,VALID,0,VALID,23.7035,VALID,354,VALID,0.696875,
2008-04-22, 01:58:05,VALID,1001.42,VALID,0,VALID,97.1309,VALID,0.100563,VALID,23.6841,VALID,353,VALID,0.655078,
2008-04-22, 01:59:05,VALID,1001.4,VALID,0,VALID,97.1004,VALID,0,VALID,23.6062,VALID,352,VALID,0.458203,
2008-04-22, 02:00:05,VALID,1001.35,VALID,0,VALID,97.0851,VALID,0.100563,VALID,23.5302,VALID,352,VALID,0.546875,
2008-04-22, 02:01:05,VALID,1001.35,VALID,0,VALID,97.0775,VALID,0,VALID,23.4523,VALID,355,VALID,0.433984,
2008-04-22, 02:02:05,VALID,1001.3,VALID,0,VALID,97.0622,VALID,0.100563,VALID,23.355,VALID,355,VALID,0.474609,
2008-04-22, 02:03:05,VALID,1001.27,VALID,0,VALID,97.0546,VALID,0,VALID,23.316,VALID,355,VALID,0.451953,
2008-04-22, 02:04:05,VALID,1001.23,VALID,0,VALID,97.047,VALID,0,VALID,23.2559,VALID,356,VALID,0.426562,
2008-04-22, 02:05:05,VALID,1001.2,VALID,0,VALID,97.0622,VALID,0,VALID,23.2771,VALID,357,VALID,0.416797,
2008-04-22, 02:06:05,VALID,1001.2,VALID,0,VALID,97.0622,VALID,0,VALID,23.2771,VALID,358,VALID,0.514063,
2008-04-22, 02:07:05,VALID,1001.18,VALID,0,VALID,97.0775,VALID,0,VALID,23.2577,VALID,358,VALID,0.499219,
2008-04-22, 02:08:05,VALID,1001.15,VALID,0,VALID,97.1462,VALID,0,VALID,23.2966,VALID,358,VALID,0.499219,
2008-04-22, 02:09:05,VALID,1001.14,VALID,0,VALID,97.1767,VALID,0,VALID,23.3727,VALID,358,VALID,0.429688,
2008-04-22, 02:10:05,VALID,1001.1,VALID,0,VALID,97.1538,VALID,0.100563,VALID,23.4134,VALID,358,VALID,0.353125,
2008-04-22, 02:11:05,VALID,1001.07,VALID,0,VALID,97.1309,VALID,0,VALID,23.3532,VALID,358,VALID,0.301172,
2008-04-22, 02:12:05,VALID,1001.08,VALID,0,VALID,97.1385,VALID,0,VALID,23.3355,VALID,358,VALID,0.398438,
2008-04-22, 02:13:05,VALID,1001.05,VALID,0,VALID,97.1309,VALID,0,VALID,23.316,VALID,358,VALID,0.449219,
2008-04-22, 02:14:05,VALID,1001.07,VALID,0,VALID,97.1233,VALID,0,VALID,23.2966,VALID,358,VALID,0.532422,
2008-04-22, 02:15:05,VALID,1001.06,VALID,0,VALID,97.1462,VALID,0.100563,VALID,23.316,VALID,358,VALID,0.579687,
2008-04-22, 02:16:05,VALID,1001.1,VALID,0,VALID,97.1156,VALID,0.100563,VALID,23.2559,VALID,358,VALID,0.635938,
2008-04-22, 02:17:05,VALID,1001.08,VALID,0,VALID,97.1309,VALID,0,VALID,23.2577,VALID,354,VALID,0.719141,
2008-04-22, 02:18:05,VALID,1001.07,VALID,0,VALID,97.1309,VALID,0.100563,VALID,23.2754,VALID,354,VALID,0.580078,
2008-04-22, 02:19:05,VALID,1001.07,VALID,0,VALID,97.1691,VALID,0.100563,VALID,23.2948,VALID,354,VALID,0.444922,
2008-04-22, 02:20:05,VALID,1001.07,VALID,0,VALID,97.1767,VALID,0,VALID,23.355,VALID,354,VALID,0.521875,
2008-04-22, 02:21:05,VALID,1001.06,VALID,0,VALID,97.1767,VALID,0,VALID,23.3939,VALID,354,VALID,0.4875,
2008-04-22, 02:22:05,VALID,1001.06,VALID,0,VALID,97.1691,VALID,0.100563,VALID,23.4134,VALID,354,VALID,0.533594,
2008-04-22, 02:23:05,VALID,1001.05,VALID,0,VALID,97.1843,VALID,0.100563,VALID,23.4116,VALID,357,VALID,0.510938,
2008-04-22, 02:24:05,VALID,1001.05,VALID,0,VALID,97.1996,VALID,0,VALID,23.4541,VALID,357,VALID,0.499609,
2008-04-22, 02:25:05,VALID,1001.06,VALID,0,VALID,97.1538,VALID,0,VALID,23.4151,VALID,357,VALID,0.553516,
2008-04-22, 02:26:05,VALID,1001.07,VALID,0,VALID,97.1309,VALID,0,VALID,23.3762,VALID,357,VALID,0.529688,
2008-04-22, 02:27:05,VALID,1001.06,VALID,0,VALID,97.108,VALID,0,VALID,23.2966,VALID,357,VALID,0.542969,
2008-04-22, 02:28:05,VALID,1001.08,VALID,0,VALID,97.1156,VALID,0,VALID,23.2382,VALID,357,VALID,0.514844,
2008-04-22, 02:29:05,VALID,1001.07,VALID,0,VALID,97.1156,VALID,0,VALID,23.2187,VALID,357,VALID,0.420312,
2008-04-22, 02:30:05,VALID,1001.04,VALID,0,VALID,97.1767,VALID,0,VALID,23.2382,VALID,357,VALID,0.285937,
2008-04-22, 02:31:05,VALID,1001.03,VALID,0,VALID,97.2148,VALID,0,VALID,23.3762,VALID,357,VALID,0.282031,
2008-04-22, 02:32:05,VALID,1000.99,VALID,0,VALID,97.1843,VALID,0,VALID,23.4134,VALID,357,VALID,0.0253906,
2008-04-22, 02:33:05,VALID,1000.99,VALID,0,VALID,97.1767,VALID,0,VALID,23.4328,VALID,357,VALID,0,
2008-04-22, 02:34:05,VALID,1000.99,VALID,0,VALID,97.1385,VALID,0,VALID,23.3957,VALID,357,VALID,0,
2008-04-22, 02:35:05,VALID,1000.96,VALID,0,VALID,97.1538,VALID,0,VALID,23.3373,VALID,357,VALID,0.078125,
2008-04-22, 02:36:05,VALID,1000.97,VALID,0,VALID,97.1309,VALID,0,VALID,23.3178,VALID,357,VALID,0.171875,
2008-04-22, 02:37:05,VALID,1000.97,VALID,0,VALID,97.1233,VALID,0,VALID,23.2382,VALID,357,VALID,0.366797,
2008-04-22, 02:38:05,VALID,1001,VALID,0,VALID,97.1156,VALID,0,VALID,23.1798,VALID,357,VALID,0.282031,
2008-04-22, 02:39:05,VALID,1000.97,VALID,0,VALID,97.1156,VALID,0,VALID,23.1409,VALID,357,VALID,0.288281,
2008-04-22, 02:40:05,VALID,1001.02,VALID,0,VALID,97.0928,VALID,0,VALID,23.1232,VALID,357,VALID,0.467578,
2008-04-22, 02:41:05,VALID,1001.02,VALID,0,VALID,97.1004,VALID,0,VALID,23.0825,VALID,357,VALID,0.421484,
2008-04-22, 02:42:05,VALID,1001.02,VALID,0,VALID,97.108,VALID,0,VALID,23.063,VALID,357,VALID,0.389844,
2008-04-22, 02:43:05,VALID,1001.04,VALID,0,VALID,97.1309,VALID,0,VALID,23.1019,VALID,357,VALID,0.413672,
2008-04-22, 02:44:05,VALID,1001.03,VALID,0,VALID,97.1309,VALID,0,VALID,23.1232,VALID,357,VALID,0.241406,
2008-04-22, 02:45:05,VALID,1001.05,VALID,0,VALID,97.1538,VALID,0,VALID,23.063,VALID,357,VALID,0.25,
2008-04-22, 02:46:05,VALID,1001.03,VALID,0,VALID,97.1233,VALID,0,VALID,23.0648,VALID,357,VALID,0.231641,
2008-04-22, 02:47:05,VALID,1001.02,VALID,0,VALID,97.1233,VALID,0,VALID,23.0046,VALID,357,VALID,0.266016,
2008-04-22, 02:48:05,VALID,1001.04,VALID,0,VALID,97.1233,VALID,0,VALID,23.0241,VALID,357,VALID,0.0875,
2008-04-22, 02:49:05,VALID,1001.04,VALID,0,VALID,97.1538,VALID,0,VALID,23.0046,VALID,357,VALID,0.183984,
2008-04-22, 02:50:05,VALID,1001.01,VALID,0,VALID,97.1614,VALID,0,VALID,23.0258,VALID,357,VALID,0.25,
2008-04-22, 02:51:05,VALID,1000.98,VALID,0,VALID,97.1767,VALID,0,VALID,23.0046,VALID,357,VALID,0.351172,
2008-04-22, 02:52:05,VALID,1000.99,VALID,0,VALID,97.1385,VALID,0,VALID,23.0064,VALID,357,VALID,0.207031,
2008-04-22, 02:53:05,VALID,1000.98,VALID,0,VALID,97.1614,VALID,0,VALID,23.0258,VALID,357,VALID,0.153516,
2008-04-22, 02:54:05,VALID,1000.98,VALID,0,VALID,97.1614,VALID,0,VALID,22.9834,VALID,357,VALID,0.0542969,
2008-04-22, 02:55:05,VALID,1000.96,VALID,0,VALID,97.1843,VALID,0.100563,VALID,23.0418,VALID,357,VALID,0.173828,
2008-04-22, 02:56:05,VALID,1000.92,VALID,0,VALID,97.1919,VALID,0,VALID,23.0418,VALID,357,VALID,0.228906,
2008-04-22, 02:57:05,VALID,1000.9,VALID,0,VALID,97.1919,VALID,0.100563,VALID,23.0613,VALID,357,VALID,0.196875,
2008-04-22, 02:58:05,VALID,1000.93,VALID,0,VALID,97.1996,VALID,0.100563,VALID,23.0613,VALID,357,VALID,0.0046875,
2008-04-22, 02:59:05,VALID,1000.88,VALID,0,VALID,97.1843,VALID,0,VALID,23.0613,VALID,357,VALID,0,
2008-04-22, 03:00:05,VALID,1000.9,VALID,0,VALID,97.2072,VALID,0,VALID,23.063,VALID,357,VALID,0,
2008-04-22, 03:01:05,VALID,1000.89,VALID,0,VALID,97.1767,VALID,0,VALID,23.063,VALID,357,VALID,0,
2008-04-22, 03:02:05,VALID,1000.9,VALID,0,VALID,97.1767,VALID,0,VALID,23.0029,VALID,357,VALID,0,
2008-04-22, 03:03:05,VALID,1000.95,VALID,0,VALID,97.1462,VALID,0,VALID,23.0046,VALID,357,VALID,0,
2008-04-22, 03:04:05,VALID,1000.93,VALID,0,VALID,97.1691,VALID,0,VALID,22.9463,VALID,357,VALID,0,
2008-04-22, 03:05:05,VALID,1000.94,VALID,0,VALID,97.1614,VALID,0,VALID,22.9445,VALID,357,VALID,0,
2008-04-22, 03:06:05,VALID,1000.97,VALID,0,VALID,97.2682,VALID,0.100563,VALID,23.0436,VALID,357,VALID,0.327344,
2008-04-22, 03:07:05,VALID,1000.99,VALID,0,VALID,97.3064,VALID,0.100563,VALID,23.1975,VALID,357,VALID,0.505078,
2008-04-22, 03:08:05,VALID,1001.02,VALID,0,VALID,97.2453,VALID,0,VALID,23.217,VALID,357,VALID,0.575,
2008-04-22, 03:09:05,VALID,1001,VALID,0,VALID,97.1996,VALID,0,VALID,23.201,VALID,357,VALID,0.549219,
2008-04-22, 03:10:05,VALID,1000.99,VALID,0,VALID,97.1843,VALID,0,VALID,23.1019,VALID,357,VALID,0.546875,
2008-04-22, 03:11:05,VALID,1000.98,VALID,0,VALID,97.1843,VALID,0,VALID,23.0436,VALID,357,VALID,0.505859,
2008-04-22, 03:12:05,VALID,1000.93,VALID,0,VALID,97.1767,VALID,0,VALID,23.0258,VALID,357,VALID,0.523047,
2008-04-22, 03:13:05,VALID,1000.94,VALID,0,VALID,97.2072,VALID,0,VALID,23.0241,VALID,357,VALID,0.499219,
2008-04-22, 03:14:05,VALID,1000.9,VALID,0,VALID,97.2301,VALID,0,VALID,23.063,VALID,357,VALID,0.426562,
2008-04-22, 03:15:05,VALID,1000.91,VALID,0,VALID,97.1996,VALID,0,VALID,23.063,VALID,357,VALID,0.372266,
2008-04-22, 03:16:05,VALID,1000.87,VALID,0,VALID,97.2377,VALID,0,VALID,23.1037,VALID,357,VALID,0.334375,
2008-04-22, 03:17:05,VALID,1000.88,VALID,0,VALID,97.2301,VALID,0,VALID,23.1214,VALID,357,VALID,0.0929687,
2008-04-22, 03:18:05,VALID,1000.85,VALID,0,VALID,97.2225,VALID,0,VALID,23.1603,VALID,357,VALID,0.00195313,
2008-04-22, 03:19:05,VALID,1000.86,VALID,0,VALID,97.2225,VALID,0,VALID,23.1798,VALID,357,VALID,0,
2008-04-22, 03:20:05,VALID,1000.87,VALID,0,VALID,97.2301,VALID,0,VALID,23.24,VALID,357,VALID,0,
2008-04-22, 03:21:05,VALID,1000.89,VALID,0,VALID,97.2148,VALID,0,VALID,23.2382,VALID,357,VALID,0,
2008-04-22, 03:22:05,VALID,1000.9,VALID,0,VALID,97.2682,VALID,0,VALID,23.2577,VALID,357,VALID,0,
2008-04-22, 03:23:05,VALID,1000.89,VALID,0,VALID,97.2835,VALID,0,VALID,23.355,VALID,357,VALID,0,
2008-04-22, 03:24:05,VALID,1000.93,VALID,0,VALID,97.2759,VALID,0,VALID,23.4541,VALID,357,VALID,0.282422,
2008-04-22, 03:25:05,VALID,1000.95,VALID,0,VALID,97.253,VALID,0,VALID,23.5107,VALID,357,VALID,0.279687,
2008-04-22, 03:26:05,VALID,1000.96,VALID,0,VALID,97.1996,VALID,0,VALID,23.4346,VALID,357,VALID,0.480078,
2008-04-22, 03:27:05,VALID,1000.93,VALID,0,VALID,97.1691,VALID,0,VALID,23.2983,VALID,357,VALID,0.523047,
2008-04-22, 03:28:05,VALID,1000.97,VALID,0,VALID,97.1691,VALID,0,VALID,23.1798,VALID,357,VALID,0.603125,
2008-04-22, 03:29:05,VALID,1000.99,VALID,0,VALID,97.1843,VALID,0,VALID,23.1409,VALID,357,VALID,0.655469,
2008-04-22, 03:30:05,VALID,1001.01,VALID,0,VALID,97.1843,VALID,0,VALID,23.1816,VALID,356,VALID,0.65625,
2008-04-22, 03:31:05,VALID,1001.01,VALID,0,VALID,97.2377,VALID,0,VALID,23.24,VALID,355,VALID,0.746484,
2008-04-22, 03:32:05,VALID,1001.03,VALID,0,VALID,97.253,VALID,0,VALID,23.2771,VALID,353,VALID,0.687109,
2008-04-22, 03:33:05,VALID,1001.01,VALID,0,VALID,97.2682,VALID,0,VALID,23.3957,VALID,356,VALID,0.736328,
2008-04-22, 03:34:05,VALID,1001.01,VALID,0,VALID,97.253,VALID,0,VALID,23.4134,VALID,3,VALID,0.755859,
2008-04-22, 03:35:05,VALID,1000.97,VALID,0,VALID,97.2606,VALID,0,VALID,23.4523,VALID,356,VALID,0.557031,
2008-04-22, 03:36:05,VALID,1001,VALID,0,VALID,97.2225,VALID,0,VALID,23.4523,VALID,354,VALID,0.28125,
2008-04-22, 03:37:05,VALID,1001,VALID,0,VALID,97.1919,VALID,0,VALID,23.4735,VALID,354,VALID,0.369922,
2008-04-22, 03:38:05,VALID,1000.97,VALID,0,VALID,97.2072,VALID,0,VALID,23.4541,VALID,355,VALID,0.528906,
2008-04-22, 03:39:05,VALID,1000.99,VALID,0,VALID,97.1919,VALID,0.100563,VALID,23.4328,VALID,354,VALID,0.523828,
2008-04-22, 03:40:05,VALID,1001,VALID,0,VALID,97.1614,VALID,0,VALID,23.3532,VALID,351,VALID,0.438281,
2008-04-22, 03:41:05,VALID,1001.01,VALID,0,VALID,97.1538,VALID,0.100563,VALID,23.2364,VALID,352,VALID,0.607813,
2008-04-22, 03:42:05,VALID,1001,VALID,0,VALID,97.1538,VALID,0.100563,VALID,23.1975,VALID,353,VALID,0.529688,
2008-04-22, 03:43:05,VALID,1001.04,VALID,0,VALID,97.1691,VALID,0.100563,VALID,23.1586,VALID,353,VALID,0.553125,
2008-04-22, 03:44:05,VALID,1001.06,VALID,0,VALID,97.1691,VALID,0.100563,VALID,23.1586,VALID,353,VALID,0.542578,
2008-04-22, 03:45:04,VALID,1001.04,VALID,0,VALID,97.1843,VALID,0.100563,VALID,23.1391,VALID,353,VALID,0.573828,
2008-04-22, 03:46:04,VALID,1001.07,VALID,0,VALID,97.1843,VALID,0,VALID,23.1391,VALID,353,VALID,0.49375,
2008-04-22, 03:47:04,VALID,1001.08,VALID,0,VALID,97.1996,VALID,0,VALID,23.1586,VALID,353,VALID,0.424219,
2008-04-22, 03:48:04,VALID,1001.08,VALID,0,VALID,97.2301,VALID,0.100563,VALID,23.178,VALID,353,VALID,0.394531,
2008-04-22, 03:49:04,VALID,1001.07,VALID,0,VALID,97.253,VALID,0,VALID,23.2577,VALID,353,VALID,0.249219,